Weather History for VIDP - November, 2013

Change the Weather History Date:

Thursday, November 7, 2013

  Actual Average Record
Temperature  
Mean Temperature 71 °F -  
Max Temperature 78 °F 77 °F 93 °F (2000)
Min Temperature 64 °F 54 °F 57 °F (2004)
Cooling Degree Days 6    
Growing Degree Days 21 (Base 50)    
Moisture  
Dew Point 57 °F    
Average Humidity 66    
Maximum Humidity 83    
Minimum Humidity 42    
Precipitation  
Precipitation 0.00 in - - ()
Sea Level Pressure  
Sea Level Pressure 30.01 in    
Wind  
Wind Speed 5 mph ()    
Max Wind Speed 10 mph    
Max Gust Speed -    
Visibility 0.7 miles    
Events Fog , Rain    
Averages and records for this station are not official NWS values.
T = Trace of Precipitation, MM = Missing Value Source: Averaged Metar Reports

Daily Weather History Graph

Daily Weather History Graph

Search for Another Location

Airport or City:

Trip Planner

Search our weather history database for the weather conditions in past years. The results will help you decide how hot, cold, wet, or windy it might be!

Date:

Astronomy

Nov. 07, 2013 Rise Set
Actual Time 6:37 AM IST 5:32 PM IST
Civil Twilight 6:13 AM IST 5:56 PM IST
Nautical Twilight 5:45 AM IST 6:25 PM IST
Astronomical Twilight 5:17 AM IST 6:52 PM IST
Moon 10:16 AM IST 9:16 PM IST
Length of Visible Light 11h 43m
Length of Day
10h 54m
Waxing Crescent, 18% of the Moon is Illuminated
Nov 7
Waxing Crescent
Nov 10
First Quarter
Nov 17
Full
Nov 26
Last Quarter
Dec 3
New

Hourly Weather History & Observations

Time (IST) Temp. Dew Point Humidity Pressure Visibility Wind Dir Wind Speed Gust Speed Precip Events Conditions
12:00 AM 66.2 °F 55.4 °F 68% 30.01 in 1.1 mi WNW 5.8 mph - N/A   Haze
12:30 AM 66.2 °F 55.4 °F 68% 30.01 in 1.0 mi NW 4.6 mph - N/A   Haze
1:00 AM 66.2 °F 55.4 °F 68% 30.01 in 0.7 mi NW 9.2 mph - N/A   Smoke
1:30 AM 66.2 °F 55.4 °F 68% 30.04 in 0.6 mi NW 9.2 mph - N/A Fog Shallow Fog
2:30 AM 64.4 °F 55.4 °F 73% 30.04 in 0.4 mi WNW 10.4 mph - N/A Fog Shallow Fog
3:00 AM 66.2 °F 53.6 °F 64% 30.04 in 0.4 mi NNW 8.1 mph - N/A   Smoke
4:00 AM 66.2 °F 53.6 °F 64% 30.04 in 0.7 mi North 6.9 mph - N/A   Smoke
4:30 AM 66.2 °F 55.4 °F 68% 30.01 in 0.7 mi North 9.2 mph - N/A   Smoke
5:00 AM 64.4 °F 55.4 °F 73% 30.01 in 0.7 mi NNE 5.8 mph - N/A   Smoke
5:30 AM 66.2 °F 55.4 °F 68% 30.01 in 0.7 mi NW 3.5 mph - N/A   Smoke
6:00 AM 66.2 °F 55.4 °F 68% 30.01 in 0.7 mi North 8.1 mph - N/A   Haze
6:30 AM 64.4 °F 57.2 °F 77% 30.04 in 0.7 mi ESE 4.6 mph - N/A   Mostly Cloudy
7:00 AM 64.4 °F 57.2 °F 77% 30.04 in 0.6 mi Calm Calm - N/A Rain Light Rain
8:00 AM 64.4 °F 59.0 °F 83% 30.04 in 0.5 mi NE 4.6 mph - N/A Fog Shallow Fog
8:30 AM 66.2 °F 59.0 °F 78% 30.06 in 0.6 mi ENE 4.6 mph - N/A Fog Shallow Fog
9:00 AM 66.2 °F 59.0 °F 78% 30.06 in 0.6 mi ESE 3.5 mph - N/A Fog Shallow Fog
9:30 AM 66.2 °F 59.0 °F 78% 30.06 in 0.6 mi ESE 4.6 mph - N/A   Overcast
10:00 AM 68.0 °F 57.2 °F 68% 30.04 in 0.6 mi ENE 4.6 mph - N/A   Smoke
10:30 AM 68.0 °F 57.2 °F 68% 30.04 in 0.6 mi East 5.8 mph - N/A   Smoke
11:00 AM 71.6 °F 55.4 °F 57% 30.04 in 0.7 mi ESE 9.2 mph - N/A   Haze
11:30 AM 71.6 °F 55.4 °F 57% 30.01 in 0.7 mi ESE 9.2 mph - N/A   Haze
12:00 PM 73.4 °F 55.4 °F 53% 30.01 in 0.7 mi ESE 9.2 mph - N/A   Haze
12:30 PM 75.2 °F 55.4 °F 50% 29.98 in 0.7 mi ESE 9.2 mph - N/A   Haze
1:00 PM 77.0 °F 53.6 °F 44% 29.98 in 0.9 mi ESE 9.2 mph - N/A   Haze
2:00 PM 78.8 °F 53.6 °F 42% 29.95 in 1.0 mi East 6.9 mph - N/A   Haze
2:30 PM 78.8 °F 53.6 °F 42% 29.95 in 1.0 mi ESE 5.8 mph - N/A   Haze
3:00 PM 78.8 °F 53.6 °F 42% 29.95 in 1.0 mi ESE 5.8 mph - N/A   Haze
3:30 PM 77.0 °F 55.4 °F 47% 29.95 in 1.0 mi East 5.8 mph - N/A   Smoke
4:30 PM 77.0 °F 55.4 °F 47% 29.95 in 0.6 mi NE 6.9 mph - N/A   Smoke
5:00 PM 75.2 °F 55.4 °F 50% 29.95 in 0.6 mi NE 6.9 mph - N/A   Smoke
5:30 PM 73.4 °F 59.0 °F 61% 29.98 in 0.6 mi NNE 4.6 mph - N/A   Smoke
6:00 PM 73.4 °F 59.0 °F 61% 29.98 in 0.6 mi NE 4.6 mph - N/A   Smoke
6:30 PM 71.6 °F 59.0 °F 64% 29.98 in 0.6 mi NNE 4.6 mph - N/A   Smoke
7:00 PM 69.8 °F 60.8 °F 73% 29.98 in 0.6 mi ENE 3.5 mph - N/A   Smoke
7:30 PM 69.8 °F 60.8 °F 73% 29.98 in 0.6 mi ENE 4.6 mph - N/A   Smoke
8:00 PM 68.0 °F 59.0 °F 73% 30.01 in 0.6 mi East 4.6 mph - N/A   Smoke
8:30 PM 68.0 °F 59.0 °F 73% 30.01 in 0.6 mi East 4.6 mph - N/A   Smoke
9:30 PM 68.0 °F 59.0 °F 73% 30.01 in 0.6 mi Calm Calm - N/A   Smoke
10:00 PM 68.0 °F 59.0 °F 73% 30.01 in 0.6 mi Calm Calm - N/A   Smoke
10:30 PM 66.2 °F 59.0 °F 78% 30.01 in 0.6 mi Calm Calm - N/A   Scattered Clouds
11:00 PM 66.2 °F 59.0 °F 78% 30.01 in 0.6 mi Calm Calm - N/A   Scattered Clouds
11:30 PM 66.2 °F 60.8 °F 83% 30.01 in 0.6 mi Calm Calm - N/A Fog Shallow Fog